CW4141 Weather Reports


Display with metric or nautical units.
time (UTC)temp
F
wind
direction
speed
MPH
gust
MPH
rain 1hr
in
rain 24hr
in
rain mn
in
humidity
%
barometer
mb
20260502214550 84 0 2.0 8.0 0.00 0.00 0.00 41 1012.5
20260502214545 84 200 1.0 8.0 0.00 0.00 0.00 41 1008.7
20260502213050 84 196 1.0 6.0 0.00 0.00 0.00 42 1012.6
20260502213045 84 196 1.0 4.0 0.00 0.00 0.00 42 1008.9
20260502211552 84 212 1.0 8.0 0.00 0.00 0.00 41 1012.6
20260502210103 84 0 2.0 4.0 0.00 0.00 0.00 43 1012.7
20260502210041 84 180 1.0 4.0 0.00 0.00 0.00 43 1009.1
20260502204554 84 200 1.0 6.0 0.00 0.00 0.00 43 1013.0
20260502204540 84 200 1.0 5.0 0.00 0.00 0.00 43 1009.2
20260502203052 84 0 2.0 7.0 0.00 0.00 0.00 41 1013.3
20260502203039 84 128 2.0 6.0 0.00 0.00 0.00 42 1009.7
20260502201555 83 157 0.0 5.0 0.00 0.00 0.00 44 1013.4
20260502201536 83 157 0.0 4.0 0.00 0.00 0.00 45 1009.7
20260502200052 82 155 0.0 3.0 0.00 0.00 0.00 42 1013.7
20260502200039 82 155 1.0 3.0 0.00 0.00 0.00 43 1010.2
20260502194550 81 155 0.0 5.0 0.00 0.00 0.00 43 1013.8
20260502194532 81 155 0.0 4.0 0.00 0.00 0.00 44 1010.2
20260502193057 80 153 1.0 5.0 0.00 0.00 0.00 43 1014.0
20260502193027 80 153 1.0 4.0 0.00 0.00 0.00 44 1010.5
20260502191558 78 0 0.0 5.0 0.00 0.00 0.00 46 1014.2
20260502191523 78 152 0.0 4.0 0.00 0.00 0.00 49 1010.7
20260502190107 78 0 0.0 3.0 0.00 0.00 0.00 45 1014.2
20260502190022 78 153 0.0 3.0 0.00 0.00 0.00 46 1010.9
20260502184601 78 0 0.0 3.0 0.00 0.00 0.00 52 1014.4
20260502184527 78 153 0.0 3.0 0.00 0.00 0.00 53 1010.9
20260502183110 76 0 0.0 2.0 0.00 0.00 0.00 57 1014.6
20260502183015 76 153 0.0 2.0 0.00 0.00 0.00 57 1011.3
20260502181552 74 0 0.0 3.0 0.00 0.00 0.00 59 1014.7
20260502181510 74 153 0.0 3.0 0.00 0.00 0.00 60 1011.4
20260502163057 60 0 0.0 1.0 0.00 0.00 0.00 93 1015.7
20260502163047 60 153 0.0 1.0 0.00 0.00 0.00 94 1012.4
20260502161623 59 0 0.0 2.0 0.00 0.00 0.00 93 1015.8
20260502161536 59 153 0.0 2.0 0.00 0.00 0.00 94 1012.4
20260502151559 56 0 0.0 0.0 0.00 0.00 0.00 93 1015.9
20260502151536 56 153 0.0 0.0 0.00 0.00 0.00 94 1012.4
20260502123048 53 0 0.0 1.0 0.00 0.00 0.00 90 1014.8
20260502123008 53 154 0.0 1.0 0.00 0.00 0.00 91 1011.0
20260502121555 53 0 0.0 2.0 0.00 0.00 0.00 90 1014.6
20260502121507 53 154 0.0 1.0 0.00 0.00 0.00 90 1011.1
20260502114557 52 154 0.0 3.0 0.00 0.00 0.00 87 1014.5
20260502114507 52 154 1.0 3.0 0.00 0.00 0.00 88 1011.0
20260502113054 52 0 0.0 0.0 0.00 0.00 0.00 86 1014.4
20260502113005 52 154 0.0 0.0 0.00 0.00 0.00 86 1010.9
20260502111554 52 0 0.0 0.0 0.00 0.00 0.00 85 1014.3
20260502111504 52 154 0.0 0.0 0.00 0.00 0.00 86 1010.6
20260502110054 52 0 0.0 0.0 0.00 0.00 0.00 85 1014.1
20260502110003 53 154 0.0 0.0 0.00 0.00 0.00 85 1010.7
20260502104553 53 0 0.0 0.0 0.00 0.00 0.00 85 1014.2
20260502104502 53 154 0.0 0.0 0.00 0.00 0.00 85 1010.6
20260502103100 53 154 0.0 0.0 0.00 0.00 0.00 85 1010.6
20260502103050 53 0 0.0 0.0 0.00 0.00 0.00 84 1014.2
20260502101602 53 154 0.0 0.0 0.00 0.00 0.00 84 1010.7
20260502101554 53 0 0.0 0.0 0.00 0.00 0.00 84 1014.1
20260502070040 58 154 0.0 0.0 0.00 0.00 0.00 83 1011.8
20260502064551 58 0 0.0 0.0 0.00 0.00 0.00 82 1015.3
20260502064537 58 154 0.0 0.0 0.00 0.00 0.00 83 1011.8
20260502063057 58 0 0.0 0.0 0.00 0.00 0.00 82 1015.5
20260502063052 58 154 0.0 0.0 0.00 0.00 0.00 82 1011.7
20260502061554 59 0 0.0 0.0 0.00 0.00 0.00 82 1015.3
20260502061541 59 154 0.0 0.0 0.00 0.00 0.00 82 1011.7
20260502060052 59 0 0.0 1.0 0.00 0.00 0.00 82 1015.3
20260502060037 59 154 0.0 1.0 0.00 0.00 0.00 82 1011.6
20260502054551 59 0 0.0 1.0 0.00 0.00 0.00 81 1015.3
20260502054536 59 154 0.0 1.0 0.00 0.00 0.00 82 1011.6
20260502053115 59 0 0.0 0.0 0.00 0.00 0.00 81 1015.5
20260502053045 59 154 0.0 0.0 0.00 0.00 0.00 81 1011.8
20260502051614 60 0 0.0 2.0 0.00 0.00 0.00 80 1015.5
20260502051536 60 154 0.0 2.0 0.00 0.00 0.00 81 1011.9
20260502050056 60 154 0.0 2.0 0.00 0.00 0.00 79 1015.5
20260502050034 60 154 0.0 2.0 0.00 0.00 0.00 80 1011.7
20260502044552 60 0 0.0 2.0 0.00 0.00 0.00 79 1015.3
20260502044533 60 154 0.0 2.0 0.00 0.00 0.00 79 1011.5
20260502043100 61 0 0.0 2.0 0.00 0.00 0.00 78 1015.1
20260502043038 61 154 0.0 2.0 0.00 0.00 0.00 78 1011.5
20260502041621 61 154 0.0 5.0 0.00 0.00 0.00 77 1015.1
20260502041533 61 154 0.0 4.0 0.00 0.00 0.00 78 1011.4
20260502040051 62 0 0.0 2.0 0.00 0.00 0.00 76 1014.8
20260502040034 62 155 0.0 2.0 0.00 0.00 0.00 76 1011.1
20260502034552 63 155 0.0 5.0 0.00 0.00 0.00 74 1014.6
20260502034531 63 155 0.0 4.0 0.00 0.00 0.00 74 1010.9
20260502033105 64 159 1.0 5.0 0.00 0.00 0.00 71 1014.4
20260502033031 64 157 1.0 4.0 0.00 0.00 0.00 72 1010.8
20260502031553 65 160 1.0 5.0 0.00 0.00 0.00 68 1014.3
20260502031531 65 160 1.0 4.0 0.00 0.00 0.00 69 1010.5
20260502030056 67 0 0.0 5.0 0.00 0.00 0.00 66 1014.0
20260502030030 67 165 0.0 4.0 0.00 0.00 0.00 67 1010.4
20260502024551 68 0 1.0 5.0 0.00 0.00 0.00 65 1013.8
20260502024531 68 169 1.0 4.0 0.00 0.00 0.00 65 1010.1
20260502023057 69 0 1.0 5.0 0.00 0.00 0.00 63 1013.6
20260502023034 69 169 1.0 4.0 0.00 0.00 0.00 63 1009.9
20260502021555 70 153 1.0 5.0 0.00 0.00 0.00 61 1013.4
20260502021530 70 153 1.0 5.0 0.00 0.00 0.00 61 1009.8
20260502020054 71 142 1.0 5.0 0.00 0.00 0.00 60 1013.1
20260502020028 71 142 1.0 5.0 0.00 0.00 0.00 60 1009.6
20260502014553 72 171 2.0 6.0 0.00 0.00 0.00 59 1013.0
20260502014527 72 171 1.0 5.0 0.00 0.00 0.00 59 1009.4
20260502013052 73 198 2.0 5.0 0.00 0.00 0.00 57 1012.7
20260502013026 73 198 2.0 5.0 0.00 0.00 0.00 57 1009.3
20260502011553 74 151 2.0 7.0 0.00 0.00 0.00 55 1012.7
20260502011526 74 151 2.0 6.0 0.00 0.00 0.00 56 1009.4
20260502010057 75 0 2.0 7.0 0.00 0.00 0.00 54 1012.7
20260502010025 75 150 2.0 7.0 0.00 0.00 0.00 55 1009.2
20260502004555 76 225 3.0 8.0 0.00 0.00 0.00 52 1012.7
20260502004525 76 225 2.0 7.0 0.00 0.00 0.00 53 1009.2
20260502003055 77 215 1.0 4.0 0.00 0.00 0.00 52 1012.5
20260502003024 77 215 0.0 4.0 0.00 0.00 0.00 52 1009.0
20260502001559 78 0 0.0 7.0 0.00 0.00 0.00 51 1012.4
20260502001526 78 215 0.0 6.0 0.00 0.00 0.00 51 1008.9
20260502000050 79 134 2.0 6.0 0.00 0.00 0.00 49 1012.4
20260502000023 79 134 2.0 6.0 0.00 0.00 0.00 50 1008.9
20260501234548 80 207 1.0 7.0 0.00 0.00 0.00 48 1012.3
20260501234522 80 207 0.0 7.0 0.00 0.00 0.00 49 1008.9
20260501233106 81 194 1.0 5.0 0.00 0.00 0.00 46 1012.3
20260501233021 81 194 1.0 3.0 0.00 0.00 0.00 46 1008.8
20260501231610 82 146 2.0 8.0 0.00 0.00 0.00 45 1012.2
20260501231522 82 146 2.0 7.0 0.00 0.00 0.00 45 1008.8
20260501230051 83 0 1.0 6.0 0.00 0.00 0.00 43 1012.2
20260501230025 83 220 2.0 6.0 0.00 0.00 0.00 43 1008.9
20260501224551 84 191 1.0 5.0 0.00 0.00 0.00 42 1012.4
20260501224519 84 191 1.0 5.0 0.00 0.00 0.00 43 1009.0
20260501223111 85 209 1.0 7.0 0.00 0.00 0.00 41 1012.4
20260501223018 85 209 2.0 7.0 0.00 0.00 0.00 41 1009.2
20260501221553 85 215 0.0 8.0 0.00 0.00 0.00 40 1012.7
20260501221518 85 215 0.0 8.0 0.00 0.00 0.00 40 1009.4
20260501220052 86 188 1.0 4.0 0.00 0.00 0.00 39 1013.0
20260501220015 86 188 1.0 4.0 0.00 0.00 0.00 39 1009.4